User: anonymous   Login
Location: Unspecified
(48.2082°N, 0.0000°E)
Time: 23:11:42
(UTC+00:00)
Language:

Explorer 11/Cluster Stage 4 - Orbit

View from above orbital plane
View from above orbital plane
View from above satellite
View from above satellite

Ground track
Ground track

The orbit data is extracted from the following two-line orbital elements,

1   107U 61013A   19165.95496074 +.00000355 +00000-0 +27427-4 0  9994
2   107 028.7898 102.3357 0547227 328.6279 028.2715 14.08784746914218
Epoch (UTC): 14 June 2019 22:55:08
Eccentricity: 0.0547227
inclination: 28.7898°
perigee height: 467 km
apogee height: 1260 km
right ascension of ascending node: 102.3357°
argument of perigee: 328.6279°
revolutions per day: 14.08784746
mean anomaly at epoch: 28.2715°
orbit number at epoch: 91421

The dashed part of the orbit path shows where the satellite is in the earth's shadow,  

DLR